This demonstration page uses our WeatherBlox Daily Observations layout. Learn more.

Left ArrowRight Arrow

36.17497, -115.13722

Hourly Observations for January 19, 2016

Temp ( °F °C ) Dew Point ( °F °C ) Humidity (%) Winds ( mph kmh ) Pressure ( in mb ) Visibility ( mi km ) Precip ( " mm )
12:53 am 00:53 Clear 47 8.3 32 undefined 56 56 W 3 6 30.23 1024 10 16 N/A
1:53 am 01:53 Clear 47 8.3 31 -0.6 54 54 NNW 9 15 30.22 1023 10 16 N/A
2:53 am 02:53 Clear 47 8.3 31 -0.6 54 54 N 9 15 30.21 1023 10 16 N/A
3:53 am 03:53 Clear 43 6.1 31 -0.6 63 63 N N/A 30.22 1024 10 16 N/A
4:53 am 04:53 Clear 42 5.6 31 -0.6 65 65 NW 5 7 30.23 1024 10 16 N/A
5:53 am 05:53 Clear 41 5 31 -0.6 67 67 N N/A 30.24 1024 10 16 N/A
6:53 am 06:53 Sunny 41 5 31 -0.6 67 67 N 3 6 30.25 1024 10 16 N/A
7:53 am 07:53 Sunny 43 6.1 32 undefined 65 65 WNW 3 6 30.26 1025 10 16 N/A
8:53 am 08:53 Sunny 45 7.2 34 1.1 66 66 N N/A 30.27 1025 10 16 N/A
9:53 am 09:53 Sunny 48 8.9 34 1.1 58 58 SSE 6 9 30.27 1025 10 16 N/A
10:53 am 10:53 Sunny 47 8.3 33 0.6 59 59 E 6 9 30.26 1025 10 16 N/A
11:53 am 11:53 Mostly Sunny 48 8.9 34 1.1 58 58 ESE 5 7 30.23 1024 10 16 N/A
12:53 pm 12:53 Sunny 50 10 34 1.1 54 54 SSE 8 13 30.18 1022 10 16 N/A
1:53 pm 13:53 Mostly Cloudy 51 10.6 33 0.6 50 50 SSW 6 9 30.18 1022 10 16 N/A
2:53 pm 14:53 Cloudy with Light Rain 50 10 39 3.9 66 66 S 6 9 30.17 1022 10 16 N/A
3:53 pm 15:53 Cloudy with Light Rain 48 8.9 39 3.9 71 71 SSW 6 9 30.19 1022 10 16 0.01 0.25
4:53 pm 16:53 Sunny 47 8.3 39 3.9 74 74 E 3 6 30.18 1022 10 16 N/A
5:53 pm 17:53 Mostly Cloudy 46 7.8 40 4.4 79 79 NE 5 7 30.21 1023 10 16 N/A
6:33 pm 18:33 Mostly Cloudy 47 8.3 39 3.9 74 74 N N/A 30.15 1021 10 16 N/A
6:53 pm 18:53 Mostly Cloudy 46 7.8 40 4.4 79 79 N N/A 30.23 1024 10 16 N/A
7:36 pm 19:36 Partly Cloudy 45 7 39 4 81 81 W 5 7 30.18 1022 10 16 N/A
7:53 pm 19:53 Clear 44 6.7 40 4.4 85 85 WNW 6 9 30.23 1024 10 16 N/A
8:34 pm 20:34 Mostly Cloudy 45 7 39 4 81 81 N N/A 30.21 1023 10 16 N/A
8:53 pm 20:53 Partly Cloudy 44 6.7 39 3.9 83 83 N N/A 30.25 1025 10 16 N/A
9:53 pm 21:53 Clear 42 5.6 38 3.3 85 85 NW 3 6 30.27 1025 10 16 N/A
10:28 pm 22:28 Mostly Cloudy 41 5 37 3 87 87 NW 5 7 30.24 1024 10 16 N/A
10:53 pm 22:53 Mostly Cloudy 40 4.4 38 3.3 93 93 WNW 7 11 30.28 1026 10 16 N/A
11:53 pm 23:53 Cloudy 42 5.6 39 3.9 89 89 NW 5 7 30.28 1026 10 16 N/A

Powered by AerisWeather